Regional Weather Roundup
Issued by NWS Bismarck, ND

Home | Current Version | Previous Version | Text Only | Print | Product List | Glossary On
Versions: 1 2 3 4 5 6 7 8 9 10 11 12 13 14 15 16 17 18 19 20 21 22 23 24 25 26 27 28 29 30 31 32 33 34 35 36 37 38 39 40 41 42 43 44 45 46 47 48 49 50
000
ASUS43 KBIS 281210
RWRBIS

NWR BROADCAST TEXT
NATIONAL WEATHER SERVICE BISMARCK ND
700 AM CDT WED JUN 28 2017

NOTE: "FAIR" INDICATES FEW OR NO CLOUDS BELOW 12,000 FEET WITH NO
SIGNIFICANT WEATHER AND/OR OBSTRUCTIONS TO VISIBILITY.


CITY           SKY/WX    TMP DP  RH WIND       PRES   REMARKS
WILLISTON      PTCLDY    52  41  66 NW3       29.74R
MINOT          PTCLDY    61  51  70 W17       29.62R
MINOT AFB      PTCLDY    59  51  74 NW13      29.62R
BISMARCK       CLOUDY    63  60  90 NW12      29.61S
DICKINSON      PTCLDY    54  52  93 NW10      29.72R
GARRISON         N/A     59  55  87 NW13      29.63S
HETTINGER ARPT MOCLDY    58  54  86 NW8       29.74R
JAMESTOWN      CLOUDY    61  58  90 N9        29.52R
HAZEN          FAIR      63  55  77 NW14      29.67R
LINTON         FAIR     N/A N/A N/A NW13      29.61R
MANDAN         FAIR      61  59  94 NW13G20   29.63R
STANLEY        FAIR      52  48  87 NW7       29.72R
TIOGA          FAIR      52  46  82 N8        29.73S
WATFORD CITY   FAIR      50  45  81 SW5       29.74R
$$

CITY           SKY/WX    TMP DP  RH WIND       PRES   REMARKS
GRAND FORKS    HVY RAIN  61  61 100 N10       29.51S FOG
GRAND FORKS AF TSTM      59  59 100 N13       29.52S FOG
DEVILS LAKE    LGT RAIN  63  63 100 NW9       29.56S
FARGO          CLOUDY    69  63  81 SE18G25   29.47F
CAVALIER       LGT RAIN  61  61 100 SE5       29.53S
GRAFTON        PTSUNNY   59  59 100 E3        29.57R
GWINNER        CLOUDY    64  61  88 CALM      29.45R
LANGDON        CLOUDY    63  63 100 SW7       29.55F
ROLLA            N/A     63  57  82 VRB3      29.60R
$$

CITY           SKY/WX    TMP DP  RH WIND       PRES   REMARKS
ABERDEEN       CLOUDY    66  60  81 W13       29.48R
MOBRIDGE       CLOUDY    67  56  67 NW12G22   29.59R
BUFFALO          N/A     55  52  89 NW10      29.73R
RAPID CITY     CLEAR     58  50  75 NW10      29.79R
GLASGOW        CLEAR     52  37  56 SE8       29.74F
SIDNEY         CLEAR     52  43  71 NW5       29.76R
WOLF POINT     CLEAR     47  42  83 S5        29.76R
GLENDIVE       CLEAR     56  49  77 W3        29.78R
MILES CITY     CLEAR     54  52  93 SE7       29.77R
BAKER          CLEAR     51  48  89 CALM      29.80R
$$

CITY           SKY/WX    TMP DP  RH WIND       PRES   REMARKS
BILLINGS       MOCLDY    59  46  62 SW9       29.79S
GREAT FALLS    PTCLDY    50  38  63 S9        29.78S
REGINA         PTCLDY    45  43  93 W7        29.70R
ESTEVAN        PTCLDY    48  45  87 NW8       29.69R
$$





USA.gov is the U.S. government's official web portal to all federal, state and local government web resources and services.